Theta_e
356 357 358 360 360 362 360 358 360 361 356 341 336 341 339 343 346 347 349 348 350 350 351 350 348 349 351 354 353 353 352 353 353 351 350 349 347 347 346 347 347 347 347 347 349 348 348 349 347 347 345 345 345 344 344 344 344 344 344 344 344 344 344 343 342 342 341 341 342 342 342 341 341 341 340 339 338 336 335 335 335 334 334 334 333 332 333 334 336 336 336 337 338 338 339 337 337
356 357 359 360 360 362 358 358 360 356 346 335 337 340 339 344 346 347 348 347 350 349 350 351 350 351 351 351 350 351 351 352 351 349 349 348 348 347 346 347 347 347 347 347 348 348 349 348 347 347 346 345 345 344 344 343 343 343 343 343 343 344 344 343 342 342 342 342 341 341 341 341 340 340 340 340 339 337 335 334 334 333 333 333 331 331 334 335 337 337 337 337 338 338 339 337 337
354 355 359 359 358 358 356 362 357 343 338 335 334 339 343 345 347 348 347 348 351 349 350 350 350 350 350 351 350 351 352 351 348 347 349 348 347 346 346 347 347 347 346 347 347 347 348 348 347 347 347 346 346 345 344 343 343 343 343 344 344 343 343 342 342 342 341 341 340 340 340 340 339 339 339 339 339 337 334 334 333 333 332 331 331 333 335 337 338 338 338 338 338 338 338 337 337
353 354 359 357 357 357 360 369 364 344 336 334 332 338 345 346 347 346 345 348 349 349 348 348 350 349 349 351 350 350 351 351 349 348 349 347 345 346 346 346 347 346 346 347 347 346 348 347 347 347 347 346 345 345 344 345 344 344 344 344 343 343 342 341 341 341 341 341 340 340 340 340 339 338 337 337 337 335 335 334 333 332 332 332 334 335 337 338 338 339 338 338 338 338 337 335 336
355 356 357 357 359 357 364 367 360 349 338 336 334 337 343 345 346 344 345 347 346 348 349 349 351 349 349 350 350 350 351 351 349 347 347 346 346 346 346 347 346 346 346 346 346 347 347 346 345 345 346 344 344 344 344 344 344 343 343 343 342 342 342 341 341 341 341 341 340 340 340 340 339 339 339 338 337 337 337 336 334 334 335 335 335 336 337 338 338 338 338 337 337 337 336 334 336
354 356 356 357 358 354 364 355 340 340 338 341 338 337 346 345 347 346 345 347 347 348 348 349 349 349 350 349 349 350 350 350 349 348 347 346 346 346 346 346 346 346 346 346 346 346 346 346 345 344 345 344 344 344 343 342 342 342 343 343 342 343 342 342 342 342 342 341 341 341 341 341 340 340 339 339 339 339 338 337 337 336 336 335 336 337 338 337 337 337 337 337 337 336 335 335 335
352 355 355 356 355 354 361 346 334 338 336 338 340 342 347 346 348 346 346 348 348 349 348 350 349 351 352 351 351 350 348 347 347 346 346 346 346 346 346 346 345 346 346 346 346 346 346 345 345 344 345 345 344 343 342 342 342 343 343 343 343 344 343 343 343 343 343 341 341 341 341 341 341 340 340 339 339 339 338 337 337 336 336 336 336 337 337 337 337 337 337 336 335 334 335 335 336
350 351 352 356 359 357 352 340 340 345 338 336 338 340 343 346 348 346 348 347 349 350 350 351 350 352 353 352 352 349 347 346 346 345 346 346 346 345 345 345 345 345 345 346 345 346 346 345 344 344 343 343 342 342 342 343 344 343 343 344 343 344 344 343 343 343 343 342 340 340 341 341 341 340 340 339 339 339 338 338 337 337 337 337 336 336 336 337 336 336 335 335 335 336 336 335 336
347 349 349 354 358 353 345 340 341 339 338 336 335 337 341 346 347 347 349 348 350 350 351 351 349 352 353 353 352 350 348 347 345 345 346 346 345 344 344 344 345 345 344 345 345 346 345 344 344 343 342 342 341 342 343 344 343 343 343 343 343 342 342 342 342 343 343 342 342 341 341 341 341 340 340 340 340 339 339 338 338 338 337 335 335 334 334 335 335 336 336 336 336 336 337 336 336
346 349 347 352 355 345 339 339 337 334 338 338 338 340 342 346 348 348 349 349 351 351 353 352 351 353 353 353 354 351 348 347 346 347 347 345 344 344 344 344 344 344 344 344 344 344 345 344 343 342 342 341 342 342 343 344 343 343 343 344 343 342 341 341 341 343 344 343 342 341 341 339 339 339 339 339 339 339 337 337 336 335 333 332 333 333 333 334 336 337 337 338 338 337 337 337 336
346 345 345 354 351 338 335 338 336 338 340 339 340 342 345 347 349 349 350 351 352 354 353 353 353 354 354 354 353 350 348 348 347 348 348 347 345 344 343 343 344 344 343 343 343 343 344 345 343 343 342 342 342 342 343 343 343 343 344 344 343 342 341 340 341 342 343 341 340 339 338 338 336 336 335 335 335 335 334 333 332 332 332 332 333 334 334 335 337 337 338 338 338 338 337 337 337
346 347 362 362 347 343 342 339 337 338 339 339 340 342 346 348 349 349 350 352 352 354 352 353 353 354 354 354 353 351 350 349 348 349 350 349 347 344 344 343 342 342 342 342 342 342 344 344 344 344 343 342 343 343 343 343 343 343 344 344 342 342 342 340 340 340 341 340 339 338 337 336 335 334 333 332 332 332 331 331 332 333 333 335 335 335 335 337 337 337 337 337 338 338 338 338 338
344 349 373 361 346 352 347 341 342 342 339 338 338 340 345 347 349 349 350 351 351 352 351 352 352 353 353 353 353 351 351 351 350 351 351 350 348 346 343 342 341 341 342 341 342 342 342 344 344 344 343 343 344 344 343 343 344 344 344 343 341 341 340 340 339 339 339 339 338 338 337 336 336 336 335 334 334 333 332 332 334 335 336 336 336 337 337 337 338 337 336 337 337 337 337 338 338
343 345 364 358 348 354 346 342 345 340 337 337 339 340 344 346 349 349 350 349 349 351 350 351 350 352 353 353 354 353 353 352 351 351 351 349 347 345 344 341 341 341 341 341 341 341 342 343 343 344 343 343 343 344 344 344 344 344 344 342 340 340 339 339 339 338 338 338 338 337 337 336 335 336 336 336 336 337 336 336 338 338 338 338 338 338 337 337 337 337 337 337 337 337 337 337 338
341 339 356 360 348 347 344 343 342 339 337 337 339 341 342 345 349 348 349 349 349 350 349 350 349 351 353 353 354 354 354 352 353 352 351 350 346 344 342 341 341 340 341 340 341 341 342 342 342 342 342 343 342 343 344 344 344 343 343 342 340 339 340 340 339 338 338 338 337 337 336 335 334 335 336 336 337 338 339 339 340 339 339 339 338 338 337 337 337 338 339 339 339 339 338 338 339
341 339 349 353 344 341 342 342 341 339 338 339 340 341 341 343 347 348 348 348 349 350 349 351 349 349 352 352 354 353 353 353 354 352 351 351 350 346 342 342 342 341 341 341 341 340 340 340 341 341 341 342 342 342 342 343 343 342 342 341 340 340 340 341 339 339 338 338 337 335 333 333 334 336 337 337 337 337 337 338 338 339 338 339 340 339 337 337 338 339 340 340 339 339 338 338 340
342 341 346 346 342 339 340 342 341 340 339 340 340 341 341 342 344 346 347 347 348 350 349 350 349 349 351 352 352 350 352 353 353 352 352 352 353 351 347 346 345 343 342 341 341 340 340 341 340 341 341 342 341 342 341 341 341 341 341 340 340 340 341 340 340 339 339 339 338 333 332 335 337 337 338 339 338 338 336 337 337 338 339 339 341 342 340 341 342 343 342 340 340 340 341 340 340
341 343 344 341 340 338 341 343 342 342 341 339 339 341 342 342 343 346 347 347 348 349 349 349 349 351 351 351 351 350 351 352 352 352 352 353 353 354 353 350 346 344 342 341 341 340 341 341 340 340 340 341 341 341 340 340 341 340 340 340 341 341 341 341 340 340 339 339 340 335 332 334 338 338 338 339 340 340 338 338 337 338 339 339 342 343 342 343 344 344 342 341 341 341 340 340 339
342 343 342 340 339 339 340 342 340 341 341 339 340 341 343 342 343 347 348 347 348 348 349 350 350 350 350 350 351 351 351 351 351 352 352 353 353 354 354 350 346 344 343 342 342 341 341 341 341 340 340 340 341 340 340 340 340 340 340 340 341 340 341 341 339 339 339 339 340 338 335 336 338 339 338 339 340 340 338 338 337 337 338 340 342 343 342 342 342 342 341 341 342 340 337 336 336
342 341 342 339 337 338 339 340 340 341 340 339 338 340 342 343 344 347 347 348 349 349 349 350 349 350 350 350 351 351 351 351 352 352 352 352 352 353 352 348 345 344 343 343 342 342 342 341 341 341 341 341 340 340 340 341 341 341 341 340 341 341 341 340 338 338 340 341 341 340 339 339 339 340 339 340 342 339 338 338 338 338 338 339 341 342 342 341 342 341 340 339 340 338 335 333 332
339 338 339 338 337 339 340 340 341 340 340 340 341 342 342 344 347 348 350 351 350 349 349 349 349 349 350 350 351 351 351 351 351 351 351 351 350 350 350 347 345 344 344 343 343 343 341 341 341 341 341 341 341 341 341 342 342 342 342 341 341 341 341 340 339 340 342 342 342 341 341 341 341 340 340 341 341 339 338 340 340 339 337 338 340 340 340 340 340 339 338 337 336 335 334 333 334
336 334 335 335 338 341 339 340 342 341 341 342 342 343 344 345 349 348 350 352 351 349 349 349 349 349 350 350 350 350 351 351 351 351 351 351 350 349 348 349 348 347 345 345 345 344 343 343 342 341 341 341 341 342 342 343 343 343 342 341 341 341 341 341 341 342 343 342 342 342 342 342 342 342 341 340 341 341 341 341 340 338 336 336 337 337 338 338 338 338 337 338 337 337 337 337 338
334 335 334 335 338 339 340 340 341 342 342 343 343 343 345 347 348 349 350 351 351 350 349 348 350 350 349 349 349 349 350 351 350 351 350 350 350 348 347 348 350 349 346 345 346 345 345 345 344 343 342 343 343 343 343 343 343 343 342 342 342 342 343 344 343 342 344 343 343 343 343 343 343 343 342 341 342 343 342 341 340 338 337 336 336 337 338 338 338 338 337 337 338 339 340 340 339
335 336 334 336 338 338 339 340 342 344 344 343 343 345 346 347 348 347 348 350 351 350 349 350 350 351 350 350 350 349 349 350 350 350 350 350 349 347 346 346 347 347 346 344 345 345 345 346 344 344 345 345 346 345 345 345 345 343 343 344 344 345 346 346 345 345 345 345 344 345 345 345 344 344 342 341 342 343 342 341 340 339 338 338 338 337 338 338 338 337 336 337 337 337 339 340 341
335 335 334 336 337 338 340 343 344 344 344 343 345 346 346 348 348 347 349 351 351 351 350 351 351 351 351 351 350 350 350 349 350 350 351 350 350 349 347 348 347 347 347 345 345 345 346 346 346 346 346 347 347 347 346 347 346 344 345 346 346 346 346 345 345 346 346 346 347 347 347 347 346 345 343 342 341 342 342 341 340 339 338 337 337 336 336 337 338 337 337 337 338 338 339 340 341
336 335 334 333 335 340 343 344 345 344 345 345 346 348 347 348 349 349 350 351 351 351 351 351 352 352 352 352 351 350 349 350 350 350 351 351 351 351 350 350 349 349 348 347 347 348 348 346 346 348 348 346 346 345 346 347 347 346 346 346 346 345 345 345 346 346 346 346 347 348 348 348 347 347 345 344 343 342 342 341 339 339 338 337 336 336 336 336 336 337 338 338 339 340 340 341 341
336 335 335 334 337 341 343 344 344 345 345 346 348 348 348 347 349 350 350 352 351 351 352 352 352 352 352 352 351 349 348 349 348 349 351 351 351 351 350 350 350 349 348 348 348 348 348 345 343 347 348 346 345 344 344 346 348 348 347 347 347 346 345 347 347 346 347 346 347 348 348 347 347 347 346 345 344 342 341 340 339 338 338 338 337 337 337 338 339 339 340 341 341 342 342 341 342
335 334 335 334 336 341 342 342 343 344 346 347 347 346 346 346 348 349 349 351 351 350 351 351 352 351 350 350 349 348 349 349 348 349 350 350 350 350 350 350 348 349 348 347 348 347 346 344 342 344 346 344 343 343 343 344 347 349 348 349 349 348 348 348 348 348 348 346 346 346 345 346 347 347 346 346 344 342 340 340 339 338 339 339 339 340 341 342 342 342 343 344 343 343 342 341 342
334 336 336 335 337 339 339 339 340 342 344 345 345 346 345 346 348 348 348 349 349 349 349 350 350 350 350 349 349 350 350 350 349 349 350 349 349 349 349 348 347 348 347 346 348 347 346 344 344 345 345 344 342 342 343 344 347 348 349 349 349 350 349 350 351 350 349 347 346 346 346 347 347 347 346 344 342 341 340 340 340 340 341 342 342 343 344 345 345 345 344 344 342 341 341 341 342
335 335 336 335 335 337 338 338 340 341 342 344 345 345 345 346 348 348 348 348 347 347 347 347 348 348 349 349 350 350 349 349 348 348 349 349 349 349 349 348 348 348 348 348 348 348 346 345 345 347 346 345 344 344 346 346 347 348 349 349 350 351 351 351 351 350 349 348 347 347 347 348 347 347 345 343 342 341 341 342 342 342 343 344 345 345 344 344 343 343 342 340 338 337 338 340 340
337 333 335 338 332 332 337 338 339 341 341 343 344 344 345 347 347 349 349 348 348 347 347 348 347 347 347 346 347 347 348 347 346 347 346 346 348 348 348 348 349 349 349 348 349 348 348 347 347 347 347 347 345 346 348 348 348 348 348 350 351 352 352 351 351 351 349 348 348 349 349 349 348 347 346 344 343 342 343 343 343 343 343 343 343 342 339 338 337 336 336 335 334 335 335 337 340
336 329 329 337 334 332 338 337 340 341 340 342 344 343 345 346 347 349 349 349 348 348 347 348 348 347 347 345 346 347 347 347 347 347 346 346 347 347 347 348 349 349 348 348 349 349 349 349 349 349 349 349 347 346 347 348 349 348 349 351 352 352 352 351 351 351 349 348 349 350 350 350 349 347 345 344 344 344 344 343 341 340 341 339 338 336 336 336 335 334 335 334 333 333 332 333 336
336 334 327 332 334 333 337 337 339 341 340 341 344 344 345 345 346 347 349 349 348 348 347 349 348 348 347 345 346 349 347 347 348 349 347 346 347 347 347 347 348 349 348 348 349 349 350 350 350 350 349 350 349 348 348 347 347 348 349 351 353 352 350 350 351 350 349 349 350 350 350 350 349 347 345 344 344 344 343 341 339 338 337 337 336 335 336 336 335 335 335 335 334 333 332 331 332
333 337 333 332 335 333 333 336 339 340 341 341 343 345 346 346 345 345 348 349 348 347 347 350 350 349 349 346 348 350 349 349 349 349 350 348 348 349 348 347 346 347 348 348 349 349 349 349 349 350 350 350 350 351 350 347 346 346 348 349 351 351 349 348 349 348 348 348 348 348 349 349 349 348 346 344 344 344 342 340 339 339 339 338 337 336 336 333 334 335 335 335 335 335 333 333 333
332 335 334 331 334 334 334 336 337 338 340 342 343 345 346 346 346 344 346 347 348 347 347 350 351 349 349 347 349 351 350 350 351 349 350 349 350 350 349 349 348 348 349 349 349 349 348 349 349 350 350 350 350 351 350 347 346 346 346 348 349 349 349 348 347 346 346 346 346 347 348 349 348 346 342 339 340 341 340 339 337 337 336 335 334 334 334 332 332 335 335 335 336 335 335 335 335
337 337 336 332 331 333 335 338 336 337 341 343 344 345 346 346 346 345 345 346 347 346 347 350 351 351 351 347 348 352 351 351 352 350 350 351 350 350 348 350 351 350 350 350 350 349 349 349 350 350 350 349 350 351 350 349 347 346 346 346 346 346 346 347 347 347 347 346 347 348 348 346 342 339 335 334 335 337 337 334 331 329 330 331 332 333 334 334 333 334 334 335 336 337 337 338 338
338 337 338 335 332 332 336 339 337 337 340 342 344 345 346 346 347 346 345 346 347 346 345 349 351 351 352 347 346 352 353 352 352 349 351 351 349 349 348 350 352 351 350 350 351 350 349 349 349 350 350 350 349 348 348 347 346 345 344 344 344 345 345 347 348 348 346 346 346 346 343 340 336 335 334 334 335 335 333 330 327 327 329 332 335 336 336 335 335 336 336 336 338 339 339 341 340
337 336 335 334 332 333 336 338 337 337 340 342 344 346 346 346 345 344 345 345 346 346 345 347 350 352 350 348 348 353 353 350 351 350 350 350 349 349 348 349 351 351 349 349 350 350 350 349 348 348 349 348 347 345 343 342 343 343 343 343 344 345 345 344 345 345 344 342 341 340 339 337 336 335 336 337 337 337 334 331 330 331 334 336 336 336 335 336 337 336 335 336 338 339 339 340 340
335 336 333 331 333 334 337 340 337 337 341 341 344 346 345 345 344 344 344 344 345 345 345 346 349 350 350 350 350 352 352 351 351 350 351 351 350 349 348 349 350 350 348 348 349 350 350 350 348 348 347 344 343 343 342 341 341 343 343 344 344 343 343 342 342 344 342 340 340 339 338 338 338 337 336 338 339 338 336 332 331 332 334 335 334 333 334 335 336 334 332 333 334 336 336 337 338
331 335 332 329 333 334 332 337 338 337 340 341 343 345 345 345 343 344 343 343 344 344 345 346 348 349 349 349 351 351 351 353 352 352 353 354 353 352 351 352 352 350 350 350 351 352 351 350 348 348 345 341 341 342 342 343 344 344 345 346 344 342 343 343 343 343 341 339 340 340 338 338 339 337 335 337 339 338 337 333 330 330 333 333 332 332 332 333 333 331 330 331 331 332 333 334 335
329 334 332 329 333 333 333 337 338 339 340 340 342 340 341 343 343 344 344 343 344 345 345 347 348 348 349 349 351 352 351 352 353 354 355 356 355 355 355 355 354 353 353 353 353 351 350 348 346 344 341 338 340 340 342 342 343 343 344 346 345 342 343 343 342 342 340 338 339 339 337 336 337 336 336 337 338 337 338 336 333 332 332 331 330 329 329 329 328 327 328 328 329 330 332 333 335
326 331 333 333 333 334 337 339 336 335 336 339 340 336 336 343 343 342 343 345 346 345 345 347 348 349 349 351 352 352 352 351 353 354 354 356 356 356 357 357 355 355 355 353 351 350 348 345 342 341 339 338 338 340 341 339 337 339 341 343 341 340 343 342 341 341 339 338 337 336 336 335 334 335 337 336 333 333 335 335 334 331 329 328 328 326 325 325 324 324 325 326 328 329 330 331 333
323 332 337 332 333 335 338 336 334 331 333 339 339 336 336 339 342 343 343 345 346 346 346 346 347 349 349 351 353 352 352 352 353 355 355 356 356 357 357 357 356 355 353 352 350 348 345 342 341 340 338 336 337 338 338 336 336 338 339 339 337 336 340 341 340 340 339 339 338 335 332 331 332 333 334 332 332 334 335 334 332 330 328 328 327 325 323 323 323 324 325 326 328 328 327 328 329
324 336 338 332 333 336 336 335 331 330 335 339 338 340 337 334 338 342 343 345 346 346 347 346 347 348 349 351 352 353 353 354 355 355 357 357 357 356 356 356 355 353 351 350 348 344 343 341 339 339 336 335 336 335 334 335 336 336 335 334 333 334 335 337 338 338 337 334 332 329 327 328 332 332 327 327 334 339 337 335 334 332 331 331 328 324 323 324 324 325 325 326 328 328 328 328 329
329 334 334 333 331 336 339 335 332 334 334 331 336 341 338 338 348 350 345 343 345 347 347 347 347 347 348 349 351 353 353 353 354 354 355 356 356 356 355 354 353 351 350 347 344 342 340 339 337 338 336 335 335 334 334 334 333 332 330 329 330 332 332 332 331 330 328 325 323 324 327 331 333 329 323 327 335 338 336 336 336 335 335 334 328 324 324 325 326 325 325 326 327 328 329 330 331
331 331 331 332 331 335 337 334 332 332 331 327 330 337 337 342 353 353 346 342 342 345 347 345 346 346 347 348 349 352 353 353 353 352 354 355 355 355 354 353 351 351 349 344 341 340 338 338 338 337 335 334 333 332 332 332 330 329 328 329 331 331 329 326 325 324 324 323 324 328 330 331 328 322 324 330 334 335 336 337 337 336 335 332 326 324 325 326 326 325 324 325 327 328 329 330 331
329 331 330 328 338 340 337 347 342 325 326 331 329 332 335 336 344 348 345 343 341 343 345 346 346 347 347 348 349 351 353 352 353 352 352 353 353 353 353 353 352 351 348 342 340 339 338 338 338 336 335 334 333 331 330 329 327 326 327 330 329 326 324 322 324 325 324 324 326 328 326 323 319 319 325 330 331 333 335 336 335 334 331 328 324 324 325 325 325 324 323 324 326 328 329 331 332
328 333 331 325 337 340 330 338 336 318 325 337 333 332 331 327 338 348 346 344 343 342 344 345 346 346 347 348 350 351 352 353 353 353 353 353 354 354 354 354 353 352 348 343 340 339 339 339 338 337 337 335 333 332 330 328 325 324 326 326 322 320 320 322 324 323 319 319 321 320 318 318 317 318 322 324 327 329 331 332 330 328 326 324 322 323 323 323 323 323 323 324 325 327 328 330 331
327 332 330 322 327 329 322 327 328 323 330 338 332 330 327 327 339 348 346 344 344 342 343 343 344 346 346 348 349 351 353 353 353 354 353 354 354 354 354 354 354 353 349 344 342 340 339 340 339 337 337 335 333 332 330 326 324 324 324 322 319 318 319 321 320 317 316 316 317 317 318 319 318 319 320 321 324 327 328 328 326 324 323 322 322 322 322 322 322 322 323 324 324 325 327 329 329
328 329 326 324 326 322 321 327 327 324 329 332 331 328 326 329 337 345 346 344 343 341 341 342 344 345 345 347 349 351 353 353 353 353 353 353 352 351 352 351 352 352 348 345 345 342 340 341 340 338 336 335 333 333 331 326 324 324 322 320 319 318 317 317 316 315 316 317 318 320 321 321 319 320 322 322 324 327 328 327 325 323 322 321 321 321 321 323 323 323 324 325 326 325 325 326 327
329 334 332 331 333 327 324 330 327 324 328 328 327 327 327 327 338 349 344 341 343 341 342 342 342 345 346 347 348 350 352 353 352 353 352 351 350 349 349 347 348 348 346 346 346 345 343 341 339 338 338 336 333 333 331 328 325 323 321 321 320 319 317 315 314 315 316 317 319 320 321 320 318 319 323 324 325 326 326 324 323 322 322 322 321 322 324 326 326 325 324 324 325 325 325 326 326
327 333 332 328 336 335 327 332 337 332 329 329 327 333 343 341 345 351 342 341 345 340 341 342 341 344 345 345 348 349 351 353 352 352 352 351 351 349 348 347 347 347 345 347 348 346 344 341 338 338 339 337 334 333 331 329 326 322 321 321 320 320 319 315 315 315 316 317 318 319 319 318 318 320 323 324 324 324 324 323 323 323 323 322 322 322 325 328 328 326 325 324 324 325 325 326 327
331 327 327 328 336 339 328 327 337 330 324 332 332 331 342 342 342 350 346 346 349 342 342 341 340 343 343 344 347 347 349 351 351 352 351 352 351 350 349 347 348 347 345 346 346 344 341 339 338 340 342 341 337 334 332 330 326 321 321 322 320 320 319 316 316 316 316 317 317 318 318 318 319 322 324 325 324 324 323 322 322 322 322 322 322 322 323 327 328 327 326 326 326 326 326 326 326
332 322 327 331 330 340 339 329 329 326 324 333 332 326 330 330 336 353 354 349 349 345 344 341 340 342 342 343 346 346 348 348 349 350 350 350 351 350 349 348 348 348 345 344 343 341 340 339 338 340 342 342 339 337 335 332 326 322 322 322 321 321 319 317 316 316 316 318 318 318 318 320 322 324 325 325 323 321 321 322 322 321 321 322 322 321 321 324 327 327 327 326 328 328 328 327 326
330 326 331 333 324 327 332 327 324 324 324 328 331 330 331 331 338 349 350 350 350 345 344 343 341 342 342 342 344 345 348 348 348 349 348 350 350 350 349 348 348 348 346 344 343 342 342 340 341 342 341 340 339 338 338 335 327 322 321 322 321 321 320 317 316 316 317 318 317 318 320 323 325 325 325 326 324 321 322 326 325 324 324 325 324 323 322 323 324 326 326 327 328 329 329 328 327
330 330 330 333 331 327 326 326 327 326 325 329 330 330 334 343 352 352 347 349 348 343 345 345 340 341 342 342 343 345 345 347 348 347 348 349 349 349 349 347 349 349 347 346 346 346 345 343 344 346 345 345 343 341 340 337 327 322 322 323 321 321 320 318 317 316 317 317 318 320 323 326 326 326 327 327 325 323 325 329 328 327 327 327 326 326 325 325 325 326 326 327 328 328 329 329 329
327 327 326 326 329 328 327 330 330 328 330 333 330 329 340 360 363 352 346 345 344 343 344 344 341 341 342 342 343 344 345 345 346 346 347 348 348 348 348 348 348 349 349 349 349 347 347 346 347 347 347 348 346 344 343 339 328 322 323 322 321 321 320 319 318 317 318 318 318 321 325 326 327 327 327 328 328 327 328 329 328 327 327 327 327 327 327 328 328 327 327 328 328 328 327 327 328
328 327 327 324 327 327 322 325 328 328 332 335 331 327 341 363 358 347 346 344 341 340 340 341 342 339 341 343 342 343 344 345 346 346 346 346 347 347 347 349 350 350 351 350 350 349 349 349 349 349 349 348 346 345 345 340 328 322 323 323 321 322 321 319 318 317 318 318 318 322 325 326 326 328 328 329 329 329 329 329 328 327 328 328 329 328 328 329 329 328 328 328 328 328 327 327 327
Wind_Speed
11 10 9 8 9 7 4 5 2 2 2 4 3 3 4 7 8 9 9 9 6 3 12 18 19 18 12 12 14 16 15 4 2 2 7 15 20 20 20 22 21 23 24 25 24 23 25 26 27 28 29 29 30 30 30 29 29 29 29 28 28 27 26 25 23 23 22 20 19 18 18 18 17 17 17 17 17 16 16 15 14 13 12 11 10 9 9 8 9 8 8 8 8 8 8 7 7
11 9 9 7 7 5 3 4 2 2 3 5 3 3 5 7 10 11 9 8 7 11 24 27 23 21 19 19 17 16 15 9 10 17 21 24 24 21 22 23 22 23 24 25 25 24 26 27 27 27 29 30 30 31 30 29 29 28 28 28 27 26 25 24 23 22 21 20 19 19 18 18 18 17 17 17 17 16 15 14 13 12 11 10 9 9 8 8 8 8 7 7 7 7 6 6 6
11 9 9 8 6 4 1 2 2 2 4 4 3 3 7 10 12 13 12 14 16 20 25 24 19 15 17 14 11 11 9 13 26 30 28 27 26 25 24 24 23 23 24 26 26 25 26 27 28 28 28 29 30 30 30 29 28 28 27 27 26 25 24 23 22 21 20 20 20 20 19 19 18 18 18 17 17 16 15 14 13 12 11 10 9 9 8 8 8 7 6 6 6 6 5 5 5
11 10 9 7 4 2 1 2 2 3 4 3 3 5 10 13 14 14 18 21 20 22 21 18 14 11 19 16 12 14 11 16 27 30 27 28 28 28 26 24 24 24 25 25 26 26 26 26 27 28 28 29 30 29 28 27 27 26 26 26 25 24 23 22 21 21 20 20 20 20 19 18 18 17 17 17 16 16 15 14 13 12 11 10 10 10 8 8 7 6 5 4 4 4 4 5 5
10 10 9 8 3 0 1 2 1 4 3 3 3 6 10 13 14 13 18 22 20 20 19 16 12 14 22 15 8 10 14 19 23 27 29 29 28 28 26 25 25 26 26 25 26 26 25 26 27 28 28 29 30 28 27 26 25 25 25 24 24 23 22 21 20 19 19 18 18 18 18 17 17 17 17 17 16 15 14 13 13 12 11 11 10 9 8 7 6 5 4 3 3 4 4 5 5
9 10 9 8 3 2 1 2 3 4 3 5 4 7 11 13 15 17 21 23 22 22 23 22 17 17 17 13 13 14 18 22 24 27 30 30 28 27 26 25 26 26 26 26 25 25 26 26 27 27 27 28 28 27 26 25 24 24 24 23 22 21 20 19 18 17 17 16 16 16 17 16 16 16 16 15 15 15 14 13 13 12 11 10 9 7 6 5 3 2 2 2 3 4 4 4 4
6 8 10 8 3 1 2 3 3 3 3 6 8 10 12 14 20 22 19 20 22 24 25 25 24 21 12 10 14 11 15 22 27 29 30 31 29 28 27 26 26 26 26 26 25 25 26 26 26 26 26 26 26 26 25 24 23 23 22 22 21 20 19 18 17 16 16 15 15 16 15 15 15 15 14 14 14 13 13 12 12 11 10 9 7 5 4 2 2 2 2 3 3 3 3 4 5
4 6 8 4 1 2 4 4 3 3 4 6 10 13 15 18 23 18 13 15 13 15 20 20 25 22 7 8 11 9 17 23 28 29 30 31 29 29 27 27 27 27 27 26 25 25 25 26 26 25 25 24 24 25 24 23 22 21 21 20 20 19 18 17 16 16 16 15 15 15 15 14 13 13 13 12 12 12 11 11 10 9 8 7 5 3 2 1 1 2 2 3 3 3 3 4 5
3 3 3 2 2 3 3 3 2 2 4 7 9 13 19 22 22 19 13 14 13 15 19 14 20 21 8 14 16 12 18 23 28 29 29 29 29 28 27 28 27 28 27 26 26 25 25 25 25 24 24 24 24 24 23 22 21 20 20 19 19 18 18 16 16 16 16 16 15 15 14 14 13 12 11 11 11 11 11 10 9 8 7 5 4 3 2 1 1 2 2 3 3 3 4 4 5
2 3 2 1 2 4 3 2 2 4 6 9 11 17 22 23 23 21 16 14 17 16 15 13 19 23 16 16 14 15 22 26 29 28 27 27 27 27 26 27 27 28 27 26 26 25 25 24 24 24 23 23 22 22 21 21 20 19 19 18 18 17 16 16 15 15 15 15 15 15 14 14 13 12 12 11 11 10 10 9 8 6 5 4 3 2 1 1 1 2 2 3 3 3 4 4 4
1 3 2 2 3 4 4 3 5 6 9 11 14 23 27 28 25 21 20 16 19 21 19 19 21 25 20 15 13 19 27 27 27 28 26 26 26 25 25 25 25 26 26 26 26 25 24 23 23 22 22 22 21 20 20 19 19 18 18 17 16 16 16 15 15 15 15 14 14 14 13 13 12 11 11 11 11 10 9 8 6 5 3 3 2 1 1 1 2 3 3 3 3 4 4 4 4
2 1 2 3 2 3 4 4 6 7 9 11 11 21 30 31 23 18 20 17 22 23 16 13 17 23 16 10 15 23 28 26 26 26 25 25 25 25 24 24 23 23 24 24 25 24 24 24 23 22 22 21 20 19 18 18 18 18 17 16 15 15 15 14 14 14 13 14 13 13 12 11 10 9 8 8 8 8 8 6 5 3 3 2 1 1 1 2 3 4 4 4 4 4 4 5 5
4 2 4 2 0 0 2 4 7 6 6 8 8 20 29 27 22 21 22 22 22 16 12 18 24 21 13 13 21 26 25 24 25 23 24 24 23 24 23 23 22 22 22 22 23 23 23 23 22 22 21 20 19 18 17 17 17 17 16 15 15 14 14 13 14 14 13 13 13 12 12 11 10 9 8 7 7 6 5 5 3 3 2 2 2 2 2 2 3 4 5 5 5 5 5 5 5
7 5 5 1 0 2 1 3 5 6 4 7 12 21 24 21 25 28 26 19 14 19 21 28 30 19 15 17 20 25 23 22 24 23 23 23 23 24 23 22 22 21 21 21 21 22 22 22 21 21 21 20 19 18 17 16 16 16 15 15 14 13 13 13 13 13 13 13 12 12 12 11 10 10 9 8 7 6 5 4 3 2 2 2 2 2 3 3 3 4 5 6 6 6 6 6 6
9 6 6 2 1 2 1 3 4 8 5 7 15 23 21 22 29 28 26 16 14 29 28 26 26 17 17 16 18 28 26 23 25 23 22 21 21 21 22 21 20 20 20 19 19 20 20 20 20 20 20 20 19 18 17 16 15 15 15 14 14 13 12 12 13 13 13 12 11 11 11 11 10 10 9 7 7 6 5 4 3 2 2 2 3 4 4 4 4 4 5 6 6 6 7 7 7
9 4 5 2 4 1 3 2 4 6 5 7 20 28 19 21 29 24 24 24 23 29 26 23 16 13 23 23 27 33 28 27 26 24 22 20 20 20 21 20 19 19 19 20 19 19 19 19 19 19 19 19 18 18 17 17 16 15 14 13 13 13 12 12 12 12 12 11 11 11 11 11 10 9 8 6 6 5 4 4 4 3 3 3 4 4 5 5 5 5 5 5 5 6 6 7 7
8 4 3 2 4 4 3 3 3 4 7 13 24 28 16 14 21 22 25 30 30 24 22 22 13 19 31 28 32 33 29 30 28 27 26 24 23 21 21 20 19 19 19 20 20 19 19 19 19 18 18 18 17 17 17 16 16 15 14 13 13 13 13 12 12 11 11 10 10 10 10 9 8 7 6 5 5 4 4 3 3 3 4 4 4 5 5 6 6 6 5 4 4 5 6 7 8
7 4 4 4 4 5 5 4 6 7 7 12 20 24 17 12 17 24 25 25 27 21 19 22 17 23 28 28 33 31 31 32 30 31 30 28 26 23 21 19 20 20 20 20 19 19 19 18 18 18 18 17 17 16 15 15 15 14 13 14 14 13 13 12 12 11 10 9 9 9 9 7 6 5 5 4 4 3 3 3 4 4 4 5 5 6 6 7 7 7 6 5 4 5 6 8 9
6 4 4 6 6 7 9 10 10 11 11 14 20 23 21 17 21 26 20 18 24 20 18 25 26 26 28 31 33 30 33 33 32 33 31 30 27 25 22 19 21 21 21 21 20 19 18 18 18 18 18 18 17 16 15 14 14 14 13 13 13 13 12 11 10 9 9 9 8 8 8 7 7 6 5 4 4 4 3 5 5 5 5 5 6 7 6 6 7 7 6 6 6 6 7 9 10
7 6 3 5 9 7 12 18 15 16 19 17 17 21 21 20 24 24 20 19 21 19 21 26 27 31 31 32 35 35 35 34 33 33 31 29 26 24 21 21 23 22 22 21 20 19 18 18 18 18 17 17 16 15 15 14 13 13 13 12 12 13 12 11 10 9 9 9 9 8 8 7 8 7 6 6 5 4 4 5 5 5 6 6 5 6 5 5 5 5 6 6 7 7 8 9 10
6 7 4 5 14 10 14 23 20 22 25 19 17 17 16 21 28 29 26 17 11 19 31 35 34 36 35 35 38 37 35 35 34 32 30 28 24 22 21 22 22 21 22 21 21 20 19 18 17 17 16 16 16 15 15 14 13 13 12 11 11 11 11 10 10 9 9 9 8 8 8 7 7 7 6 6 5 4 4 4 4 5 5 5 5 5 4 4 4 5 7 8 8 9 9 10 10
7 4 9 13 17 11 18 27 23 27 27 21 18 12 14 24 28 31 30 15 11 23 34 41 42 41 40 41 39 37 37 36 34 32 30 27 24 22 21 20 19 20 20 20 21 19 19 18 17 17 16 16 16 15 14 14 14 13 12 10 10 11 10 10 9 9 9 8 8 7 7 7 6 6 6 6 4 5 4 3 4 5 5 5 5 5 4 4 5 6 7 8 9 9 10 10 11
6 2 10 15 19 13 20 27 26 30 27 19 15 14 21 24 18 25 29 20 22 30 36 41 42 42 41 42 40 39 39 36 35 32 28 26 24 22 22 21 20 21 21 20 20 19 19 19 17 17 16 16 15 14 13 14 14 12 12 10 11 11 10 10 9 8 8 8 8 7 7 6 6 7 7 5 4 5 5 4 5 6 5 5 5 5 4 4 5 6 7 8 9 10 10 11 11
5 5 10 17 23 17 20 26 27 30 25 20 21 20 20 17 12 17 22 24 30 34 37 40 40 40 39 39 39 39 39 36 34 29 26 25 23 21 21 21 21 20 20 21 21 20 20 19 18 17 17 16 14 13 13 13 12 11 11 11 11 10 10 10 8 8 8 8 7 7 7 7 7 7 7 6 5 5 6 6 6 7 7 6 5 6 7 7 8 8 9 10 10 10 11 12 12
5 7 13 18 20 21 27 30 29 28 24 26 26 20 16 18 18 18 23 30 34 36 37 39 38 37 37 37 37 38 37 35 31 28 25 24 23 22 21 20 20 18 17 18 19 20 19 19 19 18 17 16 14 13 12 11 12 12 12 11 10 11 10 9 8 7 7 6 6 7 8 9 8 8 7 6 6 6 7 8 8 8 9 8 7 8 9 10 11 12 12 13 13 13 13 13 14
5 11 15 15 18 28 36 30 30 29 25 28 23 15 18 25 23 17 25 35 35 37 37 37 37 35 35 35 35 35 35 34 31 29 26 24 24 25 23 22 21 18 17 16 17 17 17 18 18 18 17 16 14 13 12 11 12 12 11 10 11 11 10 8 8 7 6 6 7 7 8 9 9 9 8 7 6 7 8 9 9 9 10 10 10 11 11 13 14 15 16 16 17 17 16 15 16
11 19 17 17 23 31 35 28 28 29 26 31 22 11 16 23 19 11 23 36 36 36 35 35 36 34 34 34 33 33 33 32 31 30 28 26 27 28 26 25 22 20 18 18 17 15 16 17 18 18 17 16 15 14 13 12 11 11 11 10 10 11 10 8 8 7 6 6 7 9 10 10 10 10 9 9 8 8 9 10 10 11 12 13 14 14 15 16 18 18 18 18 19 19 19 18 18
19 23 15 16 23 26 31 26 26 24 18 30 27 12 11 14 13 13 26 36 36 36 34 34 33 32 33 33 33 32 31 31 30 31 30 29 29 28 27 26 23 21 20 18 17 16 16 16 17 17 16 17 16 14 13 12 11 11 11 11 10 9 9 8 7 7 7 7 8 9 10 10 9 10 10 10 10 10 11 11 12 14 14 14 15 17 17 18 18 18 17 18 20 20 19 18 17
23 22 11 11 15 16 23 21 24 21 13 29 30 11 7 7 11 22 31 34 34 35 33 31 31 31 32 32 33 32 29 30 30 29 29 30 28 26 26 24 21 21 19 16 17 17 15 15 15 15 16 17 15 13 12 11 10 10 10 10 8 8 8 8 8 8 7 7 8 9 9 9 9 10 11 11 12 12 12 13 14 15 16 16 17 17 16 16 16 17 17 18 18 18 18 17 15
19 13 8 10 10 9 16 18 22 21 17 32 25 5 3 5 14 27 32 34 33 31 29 29 29 31 32 31 32 30 29 29 28 25 26 29 27 26 25 22 20 20 18 17 17 16 14 14 14 15 15 15 14 12 12 11 10 11 11 10 8 8 8 9 10 9 8 8 9 9 8 9 9 10 11 12 12 12 13 13 14 15 15 14 14 14 14 14 14 15 15 15 15 15 15 14 13
10 5 5 7 6 5 11 16 19 15 18 30 19 3 6 6 16 28 32 34 32 28 27 28 29 31 32 30 29 28 28 27 24 23 26 24 23 25 24 21 21 19 18 19 17 14 13 14 14 15 15 14 14 14 14 12 12 12 11 10 9 9 9 11 12 10 9 9 9 9 9 9 9 9 10 12 12 12 12 11 12 12 12 12 12 13 13 14 14 14 14 14 14 13 12 12 11
3 5 4 3 5 4 6 14 19 14 14 21 16 5 6 8 17 28 32 33 30 26 25 27 29 32 31 29 29 27 26 26 23 23 25 24 21 22 23 22 23 20 18 18 17 15 13 13 14 14 13 13 15 15 15 15 15 14 13 12 12 11 11 12 12 11 10 10 10 11 10 9 9 9 10 12 12 12 11 10 11 12 11 11 12 12 12 12 13 13 13 13 13 12 12 11 11
1 4 4 4 5 4 4 9 18 22 14 11 11 7 6 7 17 28 31 31 29 26 25 26 29 31 31 30 30 28 27 28 25 23 25 27 24 22 22 22 22 20 17 17 17 16 14 13 13 13 12 13 14 15 16 16 16 15 14 14 14 13 13 12 12 11 12 11 11 12 11 10 9 9 10 11 12 12 11 11 11 11 10 10 10 10 10 11 12 12 11 12 13 13 13 13 12
0 2 4 5 6 6 6 5 14 24 16 8 9 10 8 8 17 26 29 31 29 26 25 27 29 30 30 31 30 28 28 29 28 25 25 27 26 24 24 23 21 19 18 18 17 16 15 14 14 13 12 12 13 14 16 16 15 15 14 14 15 15 14 13 12 11 12 12 13 12 12 13 11 8 9 10 11 11 11 11 10 9 10 10 10 10 11 11 11 12 11 11 11 12 12 12 11
5 4 4 4 5 7 8 7 11 18 14 9 10 10 10 10 15 22 27 30 28 26 26 28 30 31 31 32 30 29 29 29 27 25 25 26 24 23 25 25 24 21 19 19 18 17 18 16 15 14 13 13 13 14 15 15 15 14 14 14 15 15 14 14 13 12 12 12 12 12 13 13 9 7 8 9 9 10 10 9 9 10 11 11 11 11 11 11 11 11 11 10 9 9 10 10 11
9 8 7 6 7 7 8 8 12 15 13 11 12 12 12 13 14 17 25 30 28 27 26 27 30 31 31 32 30 30 30 29 26 25 27 27 24 22 25 27 26 24 22 21 19 19 20 19 19 17 15 14 14 15 15 15 15 15 15 15 15 14 14 14 13 12 12 11 11 12 11 8 6 7 8 9 9 9 9 9 10 11 11 11 10 10 9 9 9 10 11 11 9 8 8 10 11
7 7 7 7 8 7 8 10 12 13 12 10 14 15 16 17 15 17 26 28 25 26 24 25 30 31 31 31 31 32 31 29 26 27 28 26 24 23 26 29 27 26 26 24 22 22 22 21 22 19 16 16 15 15 16 16 16 15 15 14 13 12 11 11 11 11 9 8 7 7 5 4 6 8 9 9 9 8 8 9 11 10 10 9 8 8 8 8 8 9 10 11 11 10 9 9 11
7 7 7 7 7 7 8 9 11 11 9 7 13 16 16 18 16 17 25 23 20 27 25 25 31 32 32 33 33 34 31 28 27 29 29 25 26 26 27 29 28 27 28 28 26 24 23 22 22 19 18 18 16 15 15 15 14 13 12 11 10 9 8 7 7 7 6 5 5 5 4 5 7 8 9 10 9 8 9 10 10 8 8 9 9 8 8 8 9 9 10 10 10 10 10 9 9
8 6 6 6 5 4 4 5 10 10 7 7 13 15 14 16 16 17 23 22 22 32 32 31 36 34 33 34 34 35 32 28 29 31 29 27 28 28 28 28 28 28 27 28 27 24 23 22 21 20 19 18 17 15 15 13 12 11 10 9 8 8 7 6 5 7 7 6 6 6 7 7 8 9 10 9 8 9 11 12 11 9 8 8 8 8 8 9 9 9 9 9 8 8 9 8 8
6 5 5 5 5 6 4 5 10 7 6 12 13 11 9 11 12 14 24 29 26 32 35 35 39 38 37 38 37 38 35 33 33 33 31 29 29 29 28 28 28 28 27 26 26 25 23 22 22 22 20 18 17 16 14 12 12 11 10 9 8 8 9 8 9 10 10 9 9 9 9 8 8 9 9 9 10 10 11 12 11 10 9 8 7 7 8 9 9 9 8 8 8 7 8 7 6
5 7 6 4 6 10 9 6 7 3 5 13 12 6 4 9 11 10 17 24 22 27 31 30 36 40 39 38 39 40 39 38 37 35 33 31 30 30 28 28 29 29 28 27 27 26 24 23 23 22 20 18 18 16 14 13 13 12 11 11 11 11 11 10 12 13 11 10 10 9 8 8 8 8 9 9 10 10 9 9 9 8 7 6 6 6 7 7 8 8 7 8 8 8 8 7 5
5 7 9 8 9 12 10 7 7 5 3 10 12 7 4 6 11 11 11 13 15 21 25 25 31 35 35 36 38 40 40 40 39 37 36 34 32 31 29 29 30 30 29 27 27 26 24 23 23 22 20 19 18 17 16 15 14 14 13 14 14 14 12 11 11 11 10 9 8 7 7 7 7 7 8 9 9 8 8 8 6 5 4 4 5 5 5 6 6 6 7 7 7 6 7 7 5
6 7 10 11 10 11 13 11 8 5 5 11 13 9 4 4 8 12 11 11 13 16 18 22 29 32 33 36 38 39 40 40 40 38 37 36 34 33 32 31 31 30 29 27 26 26 25 24 24 23 21 19 18 17 16 15 14 14 14 14 14 14 14 13 12 12 11 10 10 10 9 8 8 8 9 10 8 6 5 5 5 4 3 4 6 6 5 5 5 6 6 5 5 5 5 5 5
7 7 9 10 8 13 16 14 10 6 4 8 7 4 5 5 9 10 10 12 13 14 14 18 27 32 34 37 39 41 41 41 40 39 38 37 35 34 34 32 31 30 28 27 27 26 26 25 25 24 22 20 19 18 16 15 14 14 14 13 13 14 15 15 16 16 16 15 15 13 11 9 9 11 10 7 5 4 5 5 5 5 4 7 9 7 5 5 5 6 5 5 5 5 5 4 5
9 7 8 8 7 13 16 14 11 5 6 5 5 3 5 4 5 5 8 11 13 16 16 17 24 32 35 37 40 42 43 42 41 40 40 39 37 35 34 32 31 30 28 28 27 27 26 26 25 25 23 21 20 19 17 16 15 14 13 12 12 14 15 16 17 17 16 16 14 12 10 10 11 11 8 4 4 4 5 6 5 5 7 10 10 6 4 5 5 6 6 6 6 5 5 5 4
9 7 6 4 3 8 12 11 8 5 5 7 8 4 4 3 4 4 7 9 13 16 16 17 25 33 36 37 40 42 43 42 41 40 40 40 38 36 35 32 31 30 29 28 28 28 28 27 27 26 25 23 21 19 18 16 15 14 13 12 14 15 15 16 15 14 13 12 11 11 11 12 12 10 6 4 5 5 6 6 6 7 9 11 9 5 4 5 5 6 7 6 5 5 5 4 4
8 6 4 3 3 4 6 3 4 5 3 7 13 13 7 2 5 5 8 13 17 16 14 15 22 30 36 37 39 41 42 43 42 41 40 39 38 37 35 34 32 31 29 29 30 30 30 29 28 27 26 24 22 20 18 17 16 13 13 14 15 15 15 15 14 13 12 12 12 13 14 13 11 9 7 7 7 6 6 7 7 9 10 10 7 4 4 4 5 6 7 7 6 5 5 4 3
6 2 2 3 4 3 3 4 3 4 5 6 13 17 10 5 6 6 12 18 19 17 16 17 20 28 36 36 37 41 43 43 43 41 40 40 39 39 37 37 35 33 32 32 32 32 32 31 30 29 28 26 24 21 19 18 15 14 14 14 14 14 14 14 13 13 13 12 13 13 11 10 9 8 9 9 9 9 8 9 9 9 9 8 6 4 3 4 5 6 6 7 6 6 6 4 3
6 2 5 3 3 1 1 1 2 4 6 6 11 14 9 7 7 11 19 20 16 17 22 26 27 31 35 36 38 41 43 43 43 42 42 42 42 42 41 40 38 36 35 35 34 34 33 33 32 31 30 28 25 23 21 18 16 15 15 14 13 13 13 12 12 12 12 11 11 10 9 8 9 9 9 9 10 10 9 9 9 8 7 7 6 5 5 5 5 5 5 5 5 6 6 5 5
6 5 5 5 3 1 3 3 2 2 4 6 7 9 6 5 6 12 20 22 23 26 29 34 35 36 38 40 42 42 43 44 45 44 44 44 45 44 42 42 41 39 38 36 35 35 35 35 34 33 32 29 27 25 23 20 18 18 16 14 13 12 11 11 11 11 11 10 10 10 9 9 9 9 8 8 9 8 9 9 8 7 6 6 6 6 6 5 5 5 4 4 4 5 5 5 6
6 5 6 5 5 4 4 4 3 3 4 5 3 3 4 4 5 11 19 25 31 31 27 29 35 38 41 41 40 40 42 45 46 46 47 47 47 45 43 43 42 42 40 38 37 36 36 37 36 35 33 31 28 26 24 22 20 20 17 15 13 11 10 10 10 10 10 10 10 9 9 9 8 8 9 9 8 8 8 8 7 6 6 6 7 6 5 5 5 5 5 5 4 5 5 5 6
5 4 6 4 6 5 2 4 5 4 2 3 3 3 5 5 5 6 11 17 20 21 21 25 31 35 36 35 37 39 42 44 45 46 47 47 47 45 45 45 44 44 42 41 40 39 39 39 38 37 34 32 30 27 26 24 22 22 19 16 14 12 12 11 10 10 10 10 9 8 8 8 7 7 8 8 7 7 6 6 5 6 7 8 8 7 6 6 7 8 8 7 7 6 6 6 6
3 3 5 5 6 7 3 3 2 3 2 4 2 2 4 2 5 5 3 6 9 13 17 23 29 32 33 34 38 40 41 44 46 47 47 48 48 47 47 46 46 45 44 43 42 42 42 41 40 39 36 34 32 29 28 26 25 24 21 17 15 14 12 11 10 10 10 9 8 7 7 6 5 6 6 5 5 4 4 4 5 7 8 9 9 9 9 8 9 10 10 10 9 9 9 8 8
5 5 7 4 2 4 4 1 2 4 1 4 3 3 4 1 3 4 5 7 9 12 15 18 23 29 32 35 40 43 45 47 48 48 48 48 49 50 49 48 48 47 46 45 44 44 43 42 41 40 39 38 35 32 30 29 28 26 22 18 16 14 12 11 10 10 10 9 9 7 6 5 4 4 3 2 2 2 1 3 4 5 6 8 9 10 11 11 11 11 12 12 11 11 11 10 9
7 5 6 5 4 2 1 3 2 1 2 3 4 5 3 3 4 3 3 9 11 12 14 14 17 24 30 35 40 45 46 46 46 47 47 47 49 50 50 49 49 48 47 46 46 45 44 43 42 42 41 39 36 34 33 32 30 28 23 19 17 15 13 12 12 10 10 10 8 7 6 5 4 3 2 1 2 3 1 4 4 4 6 8 9 9 9 10 11 12 12 13 12 12 13 12 11
3 4 3 3 4 5 3 4 5 4 3 3 4 5 4 5 5 5 9 12 13 14 13 12 16 26 32 35 39 44 45 44 45 47 47 48 50 51 51 51 51 50 50 49 48 47 46 45 44 44 43 40 38 37 36 35 32 29 25 20 18 16 14 14 12 11 10 9 8 7 7 7 5 5 3 2 2 3 3 5 6 6 8 10 11 10 10 11 12 12 11 11 12 13 14 14 13
4 4 4 3 1 3 3 2 3 5 4 3 3 4 5 5 4 7 10 10 11 14 14 13 19 29 34 37 40 43 46 46 47 48 48 49 50 51 52 52 51 51 51 50 50 49 48 48 47 47 45 43 41 39 38 36 34 30 26 22 19 17 16 15 13 12 11 10 8 9 9 7 6 5 4 3 3 4 5 6 7 9 10 12 12 11 11 13 13 13 12 12 12 13 14 15 15
8 6 6 6 4 4 3 3 2 3 5 5 5 4 6 5 4 7 9 7 8 13 14 13 19 29 34 37 40 43 45 47 48 49 49 49 49 51 52 52 51 51 51 51 52 51 51 50 49 49 47 45 43 40 39 37 35 32 28 23 20 18 16 15 14 13 12 11 10 11 10 7 5 4 4 5 6 6 6 7 8 10 12 13 14 13 12 13 15 15 15 14 14 14 15 15 15
Wind_Direction
131 130 137 140 151 154 180 180 117 1 83 61 52 63 76 106 117 111 103 104 93 65 105 114 121 120 115 112 113 83 50 33 191 117 133 149 148 144 142 137 134 132 131 129 127 127 125 125 126 125 126 125 125 124 124 125 128 129 129 130 132 132 132 133 134 135 137 137 138 138 137 137 137 138 139 141 141 142 143 142 139 136 133 130 125 119 114 108 103 100 98 94 89 82 73 61 53
148 140 143 149 166 159 174 173 85 11 67 58 57 70 72 87 97 95 90 92 96 96 101 104 103 105 109 108 102 80 46 44 114 118 129 144 145 144 141 136 136 134 134 132 130 130 126 127 127 126 127 127 127 127 126 128 128 127 127 129 131 131 131 133 134 136 137 138 138 137 137 138 139 141 142 143 144 145 146 145 141 137 132 128 125 121 118 113 108 106 104 98 90 83 75 63 58
180 171 156 156 169 170 182 131 85 58 76 79 58 59 78 86 96 99 101 100 107 106 100 99 93 100 109 94 74 81 70 88 116 124 131 145 145 143 142 138 138 137 136 133 132 132 129 130 129 129 130 129 129 130 129 129 127 126 127 129 131 130 131 132 134 137 138 138 137 137 138 138 139 139 139 141 144 147 148 146 145 142 139 136 133 130 127 120 115 114 111 103 95 88 81 70 64
184 185 169 155 144 164 94 75 147 109 86 103 84 88 93 96 105 109 112 107 108 107 103 100 81 91 104 95 87 90 97 108 123 130 135 145 143 140 140 140 140 139 137 135 135 133 132 132 132 132 132 130 130 131 130 129 128 129 130 131 132 131 131 133 135 137 138 138 138 137 136 135 135 136 137 139 142 146 148 147 148 147 145 142 138 137 134 129 124 123 117 103 91 81 72 65 61
175 181 174 155 125 274 125 87 138 106 100 137 114 102 100 103 109 107 109 107 106 103 103 102 84 91 92 91 108 104 118 125 132 134 136 142 139 137 140 142 142 140 139 138 138 134 133 133 133 133 133 132 132 134 133 131 131 131 132 133 133 132 133 134 135 137 138 139 137 134 134 134 135 137 138 140 143 145 147 147 147 146 145 143 142 142 140 135 129 123 110 81 57 48 53 55 54
172 175 175 179 224 290 69 62 72 96 134 133 115 109 108 107 104 97 96 97 96 98 100 98 99 100 80 75 96 111 131 133 138 139 138 140 139 138 141 144 142 140 141 141 140 137 135 135 135 135 135 135 134 135 134 133 132 132 133 133 132 132 133 133 135 136 137 139 139 138 137 138 138 139 139 141 143 144 145 146 147 147 146 146 145 143 137 130 117 99 72 50 38 36 44 50 53
162 173 178 193 246 283 92 98 94 102 115 111 118 118 115 111 108 103 97 94 92 96 98 99 104 97 80 93 90 99 134 135 139 140 138 138 138 139 142 143 141 141 142 143 143 140 138 138 138 139 139 138 135 135 135 134 133 133 133 132 132 132 132 133 135 137 138 140 143 143 142 141 139 138 138 139 142 143 144 145 146 147 147 147 145 140 128 110 79 47 30 26 31 34 36 44 61
155 184 183 169 30 51 92 104 117 127 107 108 122 121 119 118 113 106 100 99 98 102 104 112 109 90 75 116 98 111 133 136 137 137 137 137 138 139 142 142 141 142 143 145 144 142 141 141 140 141 142 140 138 137 137 136 136 135 134 134 133 134 134 135 137 139 139 140 142 145 145 143 141 139 138 140 141 142 143 145 147 148 149 148 146 142 131 104 54 29 23 18 15 15 13 27 56
176 198 184 105 57 47 65 73 63 78 102 107 109 110 113 112 106 103 99 93 102 105 110 128 108 94 100 102 103 131 136 137 136 135 137 136 138 139 142 142 143 143 143 146 145 144 144 144 143 143 143 142 141 140 139 139 139 138 137 137 137 137 137 137 139 141 141 141 142 144 145 144 143 141 142 143 143 145 145 149 151 153 154 152 155 153 141 100 38 21 13 1 353 356 3 13 39
201 214 194 96 79 60 63 55 61 66 93 101 99 106 107 107 104 104 104 102 109 97 102 121 103 107 121 103 107 142 140 140 138 138 140 138 139 140 142 143 143 143 145 147 147 147 147 147 146 145 145 144 144 143 143 142 141 141 141 141 140 140 138 139 141 143 144 142 143 144 145 145 146 145 146 147 147 149 148 152 152 154 155 148 149 135 96 50 16 3 350 341 341 343 352 356 10
281 249 257 67 76 95 117 101 94 93 102 102 102 109 111 112 106 103 102 101 108 105 109 104 99 113 114 102 117 144 144 143 142 141 142 141 142 142 143 143 145 145 147 148 149 150 150 151 150 149 149 148 148 146 146 145 145 146 148 147 143 142 141 142 143 145 144 142 144 144 145 144 144 145 147 148 148 150 149 148 145 146 147 135 127 88 13 5 335 332 330 326 332 330 332 332 338
260 336 49 70 64 122 140 110 107 110 111 110 114 117 117 115 109 112 111 110 116 120 130 113 119 124 106 100 128 146 149 147 144 142 143 144 146 148 147 145 146 147 148 150 152 153 153 154 154 154 153 152 151 150 150 150 152 154 154 150 145 146 145 143 142 142 140 141 142 141 142 139 136 135 135 138 140 143 144 144 142 145 152 147 153 189 278 308 311 314 316 312 314 310 313 314 316
217 99 86 75 32 136 144 119 123 120 107 114 128 124 121 119 121 129 125 129 131 130 140 132 135 125 106 125 137 148 151 150 147 145 147 147 151 153 152 149 148 150 152 154 155 155 155 157 157 158 158 156 156 154 155 155 157 158 155 150 147 148 145 142 140 137 137 138 140 140 139 135 134 133 132 134 134 136 140 146 152 162 176 190 209 216 242 276 295 305 308 301 297 292 295 299 301
211 147 115 107 11 326 173 124 124 113 112 132 133 127 122 125 133 136 134 136 136 135 134 136 137 118 118 133 144 157 156 154 148 146 151 150 155 155 154 152 151 154 155 156 156 156 157 158 160 161 161 160 160 159 158 159 160 160 157 152 148 147 145 143 140 138 137 138 140 141 140 137 138 139 140 145 148 151 153 162 170 176 200 224 248 265 272 278 285 291 295 293 293 294 298 304 309
213 166 105 131 110 350 274 144 133 115 133 154 136 131 124 133 140 139 140 134 128 137 135 140 140 124 144 154 158 165 162 157 148 147 150 150 155 156 157 154 154 156 156 157 156 157 157 159 162 162 163 162 162 161 161 162 162 162 159 154 148 146 147 146 144 142 141 142 144 143 144 143 144 144 143 148 155 163 166 173 182 191 218 244 269 289 296 292 281 276 286 293 298 304 308 316 323
219 202 73 115 156 165 261 179 138 119 142 133 123 126 122 137 144 140 142 134 131 143 142 149 159 147 158 161 157 160 160 154 151 154 152 150 153 156 161 158 158 159 159 160 158 161 160 160 162 162 164 163 164 163 163 164 164 166 161 155 150 149 151 150 150 149 148 150 151 149 150 153 154 154 149 152 161 168 174 183 200 217 241 252 263 281 293 295 293 294 300 300 303 310 317 328 330
226 205 99 141 179 183 205 174 158 134 137 119 120 128 126 142 141 133 139 136 136 149 148 150 162 148 150 155 152 151 151 151 156 160 156 155 159 160 165 163 163 164 163 163 162 164 163 163 163 163 165 165 166 166 167 166 166 167 162 158 155 156 156 158 159 157 156 157 158 158 160 163 164 163 161 165 169 175 187 207 230 253 269 266 266 278 285 292 300 306 311 308 314 322 330 337 337
195 162 152 176 196 195 176 168 167 139 125 119 128 136 135 139 131 126 132 134 134 135 133 132 129 137 144 148 148 146 147 151 158 161 159 161 165 165 168 168 168 168 167 167 166 167 166 166 165 166 167 168 170 169 169 170 170 170 167 164 163 165 164 168 169 164 164 164 168 169 171 178 181 182 183 186 185 192 216 245 266 281 282 275 272 274 274 287 303 309 314 321 333 340 338 339 340
192 161 162 195 193 188 167 156 158 145 133 131 136 139 137 135 132 133 134 130 128 120 119 123 123 133 140 145 151 152 151 154 160 164 164 166 169 170 171 170 169 170 171 170 170 170 169 169 169 171 171 172 173 173 173 175 177 175 175 174 170 172 173 176 177 174 177 175 178 180 184 195 201 203 205 212 211 216 247 270 285 292 289 284 275 274 274 289 307 313 317 318 326 337 338 340 342
241 203 186 212 171 161 160 153 154 147 141 138 140 140 137 133 133 135 133 129 130 130 134 132 132 141 145 149 154 155 155 158 164 166 167 170 173 175 174 168 169 172 172 172 171 173 173 171 173 175 176 176 176 178 180 181 183 182 184 185 180 178 180 184 186 185 186 184 185 191 197 202 205 207 212 222 226 234 256 270 285 294 292 291 284 283 283 291 305 308 307 307 316 326 332 336 338
246 204 194 172 147 144 158 152 144 139 139 137 133 131 130 128 128 130 129 126 134 144 147 146 146 148 149 151 154 158 160 161 165 168 170 173 174 176 176 172 171 171 172 173 173 175 174 175 177 179 182 181 182 186 186 185 188 192 193 193 192 190 189 191 191 187 190 193 191 196 202 204 207 212 219 230 238 250 260 260 273 284 291 296 295 300 302 303 313 317 314 314 319 321 326 330 329
264 203 156 150 143 146 158 149 135 131 132 126 122 119 123 124 128 137 137 139 160 156 153 151 150 152 154 155 157 159 160 162 166 168 171 173 176 177 177 176 174 172 176 177 177 177 176 179 182 183 186 185 188 191 189 190 193 198 200 200 202 201 199 199 196 190 196 205 201 206 211 215 221 223 230 242 253 255 261 259 267 275 286 298 300 311 321 328 332 331 331 332 332 329 328 329 329
255 135 129 136 136 146 153 141 130 129 125 119 122 119 121 119 129 148 145 147 156 155 154 151 152 154 155 156 158 161 162 163 166 169 175 177 182 184 178 177 178 178 181 180 180 182 181 183 186 187 189 188 191 193 193 196 197 201 203 206 209 209 207 206 203 193 200 211 207 216 225 229 235 237 240 255 269 262 268 271 274 282 288 298 307 324 329 330 329 326 333 337 338 335 329 328 330
215 135 108 121 135 147 143 130 125 127 123 121 120 113 114 114 132 151 142 143 149 151 153 152 153 154 154 156 159 163 165 167 170 174 181 184 187 184 178 179 180 181 183 182 181 184 187 187 187 189 190 190 190 191 194 198 199 199 200 206 208 210 211 210 207 197 205 214 211 221 231 239 248 252 255 265 276 272 276 275 282 294 301 307 312 321 317 313 312 310 316 320 323 322 320 321 319
213 142 120 127 134 127 120 117 116 115 114 116 112 103 102 109 123 133 133 140 146 150 152 151 153 155 157 159 162 165 167 171 174 177 183 186 186 181 179 182 180 182 184 185 185 186 188 188 190 190 189 190 187 185 188 193 196 195 198 203 202 207 213 210 208 210 217 226 230 234 239 250 259 266 268 273 278 278 283 284 292 298 303 308 306 306 303 300 299 298 301 305 308 307 306 308 307
189 141 129 127 116 110 113 116 115 114 115 115 107 101 106 111 112 116 132 141 148 150 151 153 155 158 161 164 168 171 173 177 178 180 183 184 184 182 181 184 183 184 185 189 193 192 188 189 193 192 190 190 187 184 185 189 192 194 200 202 202 209 215 212 213 222 234 241 243 244 250 262 272 278 281 285 287 289 291 292 297 298 299 301 298 297 296 294 295 297 300 303 303 301 300 300 302
154 130 125 117 112 112 117 119 120 120 123 123 117 115 117 117 115 119 142 144 148 150 151 156 158 162 166 169 172 173 176 179 180 181 184 183 184 184 181 186 189 187 186 187 193 197 194 193 192 191 192 195 196 192 189 192 194 196 201 201 205 213 215 217 222 231 241 247 246 245 252 261 273 283 288 292 293 293 290 290 294 295 294 295 295 295 296 296 296 298 300 303 303 302 301 301 302
146 126 117 109 114 119 123 126 128 124 127 128 121 114 110 110 119 140 149 148 151 151 152 158 161 166 170 172 175 175 175 178 179 180 184 185 184 186 184 187 190 187 188 188 189 192 195 194 192 192 193 199 204 199 194 198 199 200 203 204 211 215 216 224 234 241 244 252 254 251 255 259 267 277 284 285 286 286 284 284 285 287 289 289 291 292 295 296 298 302 304 306 307 306 305 304 303
139 127 117 108 114 124 131 137 137 127 130 129 117 99 97 98 130 143 148 151 152 151 155 161 163 168 171 174 177 179 180 180 182 184 187 186 187 190 188 189 191 188 190 192 188 189 192 192 193 195 195 201 204 200 200 203 204 209 211 215 222 225 230 241 246 249 250 255 259 261 262 261 263 269 274 275 276 280 279 281 283 287 291 291 292 294 297 299 301 305 307 308 310 310 308 306 304
135 127 119 117 117 139 146 145 137 127 140 137 121 100 147 127 142 145 149 151 150 151 157 161 163 168 171 174 177 180 180 180 183 181 182 186 189 191 189 192 194 189 190 192 190 191 192 192 196 198 196 202 203 199 205 209 214 220 223 225 227 234 241 248 251 253 256 254 255 261 263 263 265 266 269 270 272 277 280 284 288 290 293 293 293 296 298 300 300 303 306 308 312 311 307 307 307
134 115 100 116 131 176 169 150 134 127 153 144 122 122 173 157 150 149 152 152 151 154 160 162 163 167 170 173 177 177 178 182 187 181 181 184 186 188 189 191 193 193 191 190 192 194 194 197 202 202 198 202 203 201 207 214 222 227 232 231 228 233 235 243 248 249 253 251 249 256 263 266 266 267 270 274 276 279 281 285 290 291 292 294 295 298 300 302 305 310 313 313 313 310 303 303 304
122 125 124 126 144 190 186 153 140 136 157 142 115 124 169 162 160 156 155 156 157 158 163 165 166 170 172 174 179 181 183 187 191 189 189 188 187 190 190 189 190 195 194 191 193 195 197 200 205 206 204 204 202 203 210 216 222 228 231 228 228 232 232 242 248 245 246 246 249 256 264 270 273 279 281 281 279 276 279 286 292 294 294 296 297 300 302 304 310 315 316 313 311 309 303 301 301
58 126 156 160 152 175 181 166 153 143 149 150 128 139 167 167 167 162 160 161 161 161 164 165 167 172 173 175 179 184 186 186 188 191 190 188 189 191 191 193 193 197 200 194 193 197 200 201 206 208 209 208 203 206 216 219 221 224 224 224 229 232 233 242 247 247 248 248 254 261 268 271 275 288 293 290 283 280 288 295 295 296 297 299 299 302 303 306 310 312 314 312 310 310 311 311 311
234 93 137 158 155 165 171 182 165 148 148 168 143 140 165 172 167 164 164 164 163 164 165 166 168 172 175 176 179 185 186 186 189 190 188 187 190 193 193 197 201 202 200 197 200 208 211 211 211 211 213 214 207 210 221 223 223 224 226 229 233 236 238 244 249 252 255 256 260 265 270 272 276 289 292 289 287 288 293 295 296 299 300 302 304 305 304 305 308 309 310 312 312 314 317 319 318
169 148 129 147 160 179 182 174 172 158 147 148 140 142 160 163 164 165 165 165 165 169 168 166 170 174 177 179 181 185 186 188 192 194 194 194 197 201 199 198 203 204 201 204 212 218 221 220 217 216 215 211 207 211 219 223 225 228 230 231 233 237 241 246 253 257 258 258 260 262 265 273 283 283 279 283 285 285 283 285 291 295 296 299 303 304 303 304 306 307 306 309 315 319 322 323 319
177 173 152 158 170 196 195 174 176 160 140 150 153 150 158 161 170 169 167 166 167 173 171 168 173 177 180 183 185 187 189 192 195 198 199 201 203 205 200 198 202 205 205 209 215 220 222 219 216 218 214 208 209 211 215 220 223 226 228 230 232 235 240 244 249 252 255 258 259 260 260 267 277 271 277 285 284 278 273 281 292 293 291 292 298 304 309 312 310 309 308 311 315 316 321 325 322
205 177 163 171 172 198 200 181 184 155 135 166 161 150 161 167 174 175 170 169 169 174 174 170 175 179 181 184 186 189 193 195 199 200 198 199 204 202 197 198 201 205 207 209 213 216 218 218 216 217 214 212 214 211 212 217 219 222 225 228 231 234 238 241 245 249 249 247 244 248 250 255 267 276 287 292 289 280 277 294 300 293 287 289 299 312 319 319 317 321 321 320 318 316 320 327 325
232 199 181 188 180 199 206 179 177 153 126 170 160 148 166 172 176 177 171 172 176 179 177 175 178 181 183 185 187 190 192 194 199 200 196 195 197 196 195 198 202 204 204 206 209 211 213 215 214 214 214 212 213 211 211 215 217 221 225 225 227 230 230 233 243 238 227 227 231 235 244 256 269 281 287 288 284 278 287 304 301 289 292 297 305 314 320 320 325 333 333 332 330 324 328 333 326
235 217 170 196 200 182 228 196 170 157 126 162 162 154 172 180 177 177 175 179 184 184 183 180 180 180 183 185 187 188 187 189 191 191 191 190 189 190 193 198 202 204 205 207 210 212 210 211 212 214 214 209 208 208 210 214 215 216 220 221 223 220 216 219 220 213 215 227 231 230 237 245 256 269 279 279 272 276 292 299 292 289 299 305 310 317 322 323 326 334 336 340 341 333 332 336 329
237 226 174 199 197 162 223 216 172 164 137 159 164 157 173 182 180 184 183 183 184 187 187 184 183 183 185 188 187 186 185 184 184 185 187 187 187 191 196 199 202 204 207 210 213 214 211 209 209 210 209 205 203 202 203 206 208 212 218 224 224 215 213 216 214 213 216 217 214 219 228 232 242 260 274 275 273 281 290 292 290 294 299 303 311 317 319 321 324 331 334 333 334 333 332 336 332
228 216 200 189 190 192 206 187 155 109 115 151 145 130 184 189 187 195 188 184 183 186 186 185 185 187 187 187 187 187 187 186 186 188 190 192 194 197 201 203 205 208 211 212 211 211 208 203 202 204 204 200 197 197 196 197 202 209 214 220 218 213 215 219 217 218 218 216 220 225 230 236 244 259 269 273 278 281 283 289 294 294 290 287 292 298 302 308 314 322 326 323 325 329 327 329 332
245 220 202 191 200 205 195 162 135 89 121 165 143 136 227 220 195 194 187 186 185 183 185 186 186 187 185 184 186 188 190 191 192 193 194 198 201 202 203 205 207 211 213 210 206 204 202 198 197 199 198 194 193 194 195 199 205 209 215 219 216 215 220 223 223 223 222 225 236 246 254 259 259 262 267 276 283 280 277 286 294 295 287 279 288 293 292 294 303 312 316 317 320 320 313 311 317
258 229 200 201 202 189 175 162 153 144 187 188 165 155 198 231 215 204 186 182 189 188 189 189 187 187 186 185 187 189 190 192 194 196 198 199 202 203 203 203 206 208 208 204 201 200 198 195 194 195 193 190 191 193 198 204 209 213 218 223 222 222 223 224 227 228 234 245 259 268 273 271 269 270 273 276 279 282 291 298 309 314 310 319 322 314 306 307 314 323 326 325 322 316 303 300 305
252 229 196 204 185 166 169 166 177 183 150 177 185 130 130 194 219 206 181 177 190 198 195 194 192 191 190 189 190 191 192 193 194 196 197 199 202 203 203 203 204 205 203 200 199 197 196 194 193 193 191 190 192 196 202 207 212 217 220 222 225 227 227 230 232 234 241 249 254 258 260 263 270 278 279 269 257 282 307 306 316 323 323 333 331 322 319 328 332 339 344 337 327 323 321 322 319
243 227 193 196 170 169 175 172 187 176 105 167 217 100 116 219 240 180 172 179 191 202 200 198 196 193 193 193 192 193 194 196 197 197 198 200 202 204 204 203 202 204 202 199 198 196 195 194 193 193 193 195 196 198 203 209 215 219 221 224 227 231 234 235 236 238 241 243 245 247 252 263 271 279 282 249 226 262 288 295 306 314 317 325 326 322 326 336 338 341 343 339 334 330 332 339 341
243 233 197 180 123 165 177 173 176 138 118 190 207 169 147 248 256 167 170 190 198 205 204 201 198 195 195 194 194 194 195 197 199 199 200 201 203 204 204 202 201 203 201 198 198 196 195 195 195 196 197 198 199 201 205 210 214 217 221 227 230 234 237 237 237 238 239 239 241 246 255 263 267 269 265 240 233 244 265 285 293 298 308 316 316 310 315 325 329 332 335 336 331 326 329 336 342
245 259 236 264 14 115 156 150 125 135 188 210 199 194 178 202 243 191 183 201 198 196 199 203 199 196 196 196 194 194 195 196 198 200 201 202 203 204 203 201 201 202 200 199 199 197 196 197 197 200 201 201 203 205 207 211 214 217 222 228 233 236 236 233 230 232 237 238 240 247 251 255 257 256 252 253 251 243 252 266 275 290 302 306 303 295 302 311 318 327 331 327 322 320 325 333 336
226 256 181 235 305 59 80 15 69 170 240 236 198 194 186 203 240 211 209 213 200 187 191 198 197 196 197 195 194 194 195 196 197 199 200 200 200 201 201 201 202 202 200 199 200 198 197 199 200 202 204 205 207 208 209 213 214 216 221 226 233 235 231 225 223 229 232 231 233 238 241 243 248 248 248 247 242 240 246 255 270 287 293 289 289 296 303 307 313 319 318 313 313 315 320 325 321
206 189 104 146 263 355 94 251 195 200 246 245 191 180 187 220 225 204 209 216 206 192 192 194 193 192 193 194 194 195 195 196 197 198 199 199 199 199 200 202 203 203 199 198 200 199 199 202 203 204 206 207 209 210 210 212 215 215 217 222 226 225 221 219 222 225 223 221 224 227 233 244 249 245 240 230 226 234 243 254 269 278 280 284 295 307 310 311 311 309 306 301 297 304 315 314 302
193 187 148 154 165 166 227 231 213 208 253 258 195 169 194 251 248 208 204 210 208 201 196 194 191 187 189 194 195 195 195 196 198 199 200 200 200 200 200 201 203 203 200 198 201 202 202 205 206 207 208 210 211 212 212 213 215 214 213 218 221 216 213 218 221 221 219 218 220 226 237 247 248 242 236 230 231 238 246 256 267 275 285 297 306 309 308 308 306 302 305 299 287 291 302 301 293
204 174 147 161 157 164 214 205 188 200 238 268 235 175 192 208 238 212 199 206 208 203 194 187 188 188 189 193 194 193 195 197 199 201 202 203 202 201 200 200 201 203 200 199 202 205 206 207 209 209 210 212 213 213 214 214 215 215 212 216 217 208 209 215 215 216 214 210 213 223 234 242 243 236 231 232 237 242 248 258 269 285 300 304 303 301 302 305 306 308 314 313 302 295 291 290 286
227 146 119 172 176 158 189 197 187 173 201 259 222 207 209 202 258 244 198 204 203 191 176 170 179 186 186 189 193 194 196 198 201 203 203 203 203 201 200 200 201 203 201 200 203 206 208 209 210 212 212 214 214 215 215 215 216 216 213 214 213 205 207 209 206 208 207 204 210 220 231 240 240 231 226 227 234 243 251 261 279 295 297 295 296 295 294 299 304 309 314 316 312 302 292 286 278
217 170 169 210 174 140 133 243 271 93 138 265 240 254 293 294 303 324 123 164 173 168 169 169 174 178 180 187 192 195 198 200 203 205 205 204 203 203 202 201 202 203 202 202 203 206 208 210 211 213 215 216 216 216 217 216 216 216 214 214 212 206 205 206 202 200 200 204 209 216 228 237 233 228 222 222 237 253 258 272 289 293 291 294 297 294 291 292 296 302 305 307 309 304 296 286 277
145 205 209 201 147 114 109 174 328 56 153 277 291 263 284 264 274 325 78 142 172 173 176 175 170 171 177 186 191 196 201 203 205 207 208 206 204 204 204 203 204 205 205 205 206 207 209 211 213 214 215 216 216 217 217 217 216 217 216 213 211 207 204 207 204 195 196 203 205 208 214 213 209 204 198 214 239 219 236 302 296 286 297 312 312 301 293 288 286 290 295 297 300 300 298 289 281
149 184 192 162 159 191 131 162 176 114 195 275 302 280 250 200 234 264 174 180 184 180 179 172 166 172 179 184 190 196 201 204 205 207 207 207 206 206 205 205 206 207 208 208 209 210 211 213 215 216 217 219 218 217 217 217 217 217 216 213 211 207 202 207 208 198 195 199 197 193 184 176 172 152 149 218 220 187 214 335 317 295 316 333 334 325 311 301 294 292 294 294 294 293 292 291 288
157 144 169 178 170 176 182 168 161 166 191 225 281 291 268 226 217 211 208 200 184 178 180 175 175 181 183 184 189 196 201 203 205 207 208 208 208 208 208 208 209 209 210 210 210 211 213 215 216 218 219 220 220 218 216 216 216 216 214 211 209 206 204 208 208 202 199 197 191 179 169 167 158 135 134 187 215 221 275 321 323 311 318 329 334 333 330 325 318 311 305 300 296 291 288 289 290
172 149 180 215 199 141 171 199 149 145 157 184 219 258 268 250 211 199 207 199 180 176 175 180 186 186 186 186 188 195 200 203 206 208 209 209 209 210 210 210 210 210 210 210 211 213 215 216 216 218 219 221 221 219 216 217 217 215 211 209 207 206 206 208 208 207 203 199 190 175 172 177 169 157 167 199 239 264 284 306 314 311 312 318 322 324 324 323 319 316 313 307 304 299 293 290 288
171 167 185 192 167 124 155 244 262 138 151 173 183 222 262 260 227 205 189 165 170 180 176 184 189 187 189 190 190 195 199 202 207 209 209 210 211 210 210 210 210 209 209 209 211 213 214 215 216 218 219 222 223 220 217 217 217 214 211 208 207 207 207 209 210 210 206 202 194 180 179 188 185 192 220 238 254 267 279 292 298 300 303 309 313 315 315 312 308 308 310 308 306 304 299 293 288